Location: ???????
(55.3754°N, 39.3545°E)
Time: 05:13:05
(UTC+00:00)

Resurs 1-4 Rocket - Pass Details

Date: 14 April 2026
Orbit: 798 x 812 km, 98.8° (Epoch: 10 May)

Event Time Altitude Azimuth Distance (km) Brightness Sun altitude
Rises 22:55:52 0° 24° (NNE) 3,349 6.8 -22.1°
Reaches altitude 10° 22:58:49 10° 40° (NE) 2,411 5.6 -21.9°
Maximum altitude 23:02:47 21° 89° (E) 1,756 4.1 -21.7°
Drops below altitude 10° 23:06:44 10° 137° (SE) 2,393 4.4 -21.4°
Enters shadow 23:07:00 - 139° (SE) 2,465 4.4 -21.4°
